TimeCST,TemperatureF,Dew PointF,Humidity,Sea Level PressureIn,VisibilityMPH,Wind Direction,Wind SpeedMPH,Gust SpeedMPH,PrecipitationIn,Events,Conditions,WindDirDegrees,DateUTC
12:53 AM,62.1,55.0,78,29.77,10.0,South,12.7,-,N/A,,Clear,170,2012-12-03 06:53:00
1:53 AM,63.0,57.0,81,29.75,10.0,South,16.1,21.9,N/A,,Clear,170,2012-12-03 07:53:00
2:53 AM,64.9,57.0,75,29.72,10.0,South,18.4,25.3,N/A,,Clear,170,2012-12-03 08:53:00
3:53 AM,64.9,57.0,75,29.69,10.0,South,19.6,29.9,N/A,,Clear,180,2012-12-03 09:53:00
4:53 AM,66.0,57.9,75,29.68,10.0,South,16.1,24.2,N/A,,Clear,180,2012-12-03 10:53:00
5:53 AM,64.9,57.0,75,29.68,10.0,South,17.3,31.1,N/A,,Clear,180,2012-12-03 11:53:00
6:53 AM,64.9,57.0,75,29.68,10.0,South,13.8,32.2,N/A,,Clear,190,2012-12-03 12:53:00
7:53 AM,64.9,57.0,75,29.69,10.0,South,18.4,28.8,N/A,,Clear,180,2012-12-03 13:53:00
8:49 AM,66.2,57.2,73,29.71,10.0,SSW,21.9,29.9,N/A,,Mostly Cloudy,200,2012-12-03 14:49:00
8:53 AM,66.2,57.2,73,29.71,10.0,SSW,18.4,29.9,N/A,,Mostly Cloudy,200,2012-12-03 14:53:00
9:53 AM,68.0,57.0,68,29.72,10.0,SSW,20.7,33.4,N/A,,Mostly Cloudy,210,2012-12-03 15:53:00
10:01 AM,68.0,57.2,68,29.72,10.0,SSW,12.7,31.1,N/A,,Mostly Cloudy,210,2012-12-03 16:01:00
10:53 AM,71.1,55.9,59,29.73,10.0,SW,19.6,26.5,N/A,,Scattered Clouds,220,2012-12-03 16:53:00
11:53 AM,72.0,52.0,49,29.73,10.0,SSW,19.6,29.9,N/A,,Partly Cloudy,210,2012-12-03 17:53:00
12:53 PM,73.0,50.0,44,29.75,10.0,WSW,11.5,21.9,N/A,,Mostly Cloudy,250,2012-12-03 18:53:00
1:53 PM,72.0,48.9,44,29.76,10.0,West,8.1,16.1,N/A,,Clear,260,2012-12-03 19:53:00
2:51 PM,68.0,42.8,40,29.80,10.0,NW,16.1,-,N/A,,Clear,310,2012-12-03 20:51:00
2:53 PM,68.0,42.1,39,29.79,10.0,WNW,16.1,-,N/A,,Clear,300,2012-12-03 20:53:00
3:53 PM,62.1,39.9,44,29.85,10.0,NNW,12.7,-,N/A,,Clear,330,2012-12-03 21:53:00
4:53 PM,59.0,41.0,51,29.89,10.0,NW,5.8,-,N/A,,Clear,310,2012-12-03 22:53:00
5:53 PM,55.9,41.0,57,29.93,10.0,NW,5.8,-,N/A,,Clear,310,2012-12-03 23:53:00
6:53 PM,54.0,41.0,62,29.96,10.0,WNW,4.6,-,N/A,,Clear,300,2012-12-04 00:53:00
7:53 PM,53.1,39.0,59,29.99,10.0,NNW,6.9,-,N/A,,Clear,330,2012-12-04 01:53:00
8:53 PM,54.0,36.0,51,30.01,10.0,NNW,9.2,-,N/A,,Clear,340,2012-12-04 02:53:00
9:53 PM,54.0,34.0,47,30.03,10.0,NNW,6.9,-,N/A,,Clear,340,2012-12-04 03:53:00
10:53 PM,53.1,33.1,47,30.04,10.0,NW,5.8,-,N/A,,Clear,310,2012-12-04 04:53:00
11:53 PM,48.2,33.8,58,30.08,10.0,West,4.6,-,N/A,,Clear,270,2012-12-04 05:53:00